AR316 Weather Reports


time (UTC)temp
C
wind
direction
speed
KPH
gust
KPH
rain 1hr
cm
rain 24hr
cm
rain mn
cm
humidity
%
barometer
mb
20260505114005 11 338 3.2 4.8 0.00 0.00 0.00 50 1011.8
20260505113004 11 338 3.2 4.8 0.00 0.00 0.00 51 1011.8
20260505112005 11 338 3.2 4.8 0.00 0.00 0.00 52 1011.8
20260505101004 11 338 3.2 3.2 0.00 0.00 0.00 52 1011.5
20260505100005 11 338 0.0 0.0 0.00 0.00 0.00 52 1011.1
20260505095005 11 338 0.0 3.2 0.00 0.00 0.00 52 1011.1
20260505094005 12 338 0.0 3.2 0.00 0.00 0.00 50 1011.1
20260505093005 12 338 0.0 1.6 0.00 0.00 0.00 50 1011.1
20260505092004 12 0 1.6 3.2 0.00 0.00 0.00 48 1010.8
20260505091005 12 0 0.0 3.2 0.00 0.00 0.00 48 1010.8
20260505085005 12 338 1.6 4.8 0.00 0.00 0.00 48 1010.8
20260505084006 12 326 0.0 3.2 0.00 0.00 0.00 48 1010.4
20260505083004 12 338 3.2 3.2 0.00 0.00 0.00 49 1010.4
20260505082005 12 338 3.2 3.2 0.00 0.00 0.00 49 1010.4
20260505081005 13 338 1.6 1.6 0.00 0.00 0.00 48 1010.4
20260505080006 13 338 0.0 4.8 0.00 0.00 0.00 48 1010.4
20260505075004 13 338 4.8 4.8 0.00 0.00 0.00 47 1010.1
20260505074004 13 338 0.0 4.8 0.00 0.00 0.00 47 1010.1
20260505073005 13 338 0.0 4.8 0.00 0.00 0.00 47 1010.1
20260505072005 13 338 3.2 4.8 0.00 0.00 0.00 46 1010.1
20260505071005 13 338 0.0 3.2 0.00 0.00 0.00 45 1010.0
20260505070005 13 315 3.2 4.8 0.00 0.00 0.00 46 1009.8
20260505065005 14 315 4.8 4.8 0.00 0.00 0.00 44 1009.8
20260505064006 14 315 3.2 4.8 0.00 0.00 0.00 44 1009.8
20260505063005 14 315 3.2 3.2 0.00 0.00 0.00 44 1009.8
20260505062004 15 292 3.2 3.2 0.00 0.00 0.00 43 1009.8
20260505060004 15 0 4.8 4.8 0.00 0.00 0.00 43 1009.8
20260505054005 15 315 4.8 4.8 0.00 0.00 0.00 43 1009.4
20260505053004 15 316 1.6 8.0 0.00 0.00 0.00 43 1009.4
20260505052004 15 338 8.0 8.0 0.00 0.00 0.00 41 1009.4
20260505041005 16 338 1.6 4.8 0.00 0.00 0.00 41 1008.8
20260505040005 16 338 3.2 4.8 0.00 0.00 0.00 41 1008.4
20260505035004 16 338 0.0 4.8 0.00 0.00 0.00 41 1008.8
20260505034006 16 338 3.2 4.8 0.00 0.00 0.00 41 1008.1
20260505033006 16 338 3.2 4.8 0.00 0.00 0.00 41 1008.4
20260505031005 16 338 0.0 3.2 0.00 0.00 0.00 41 1008.1
20260505030004 17 338 0.0 1.6 0.00 0.00 0.00 41 1008.1
20260505025004 17 338 1.6 3.2 0.00 0.00 0.00 41 1007.7
20260505024006 17 338 1.6 4.8 0.00 0.00 0.00 40 1007.7
20260505023004 17 338 0.0 4.8 0.00 0.00 0.00 40 1007.7
20260505022005 17 338 3.2 3.2 0.00 0.00 0.00 41 1007.7
20260505021004 17 338 3.2 3.2 0.00 0.00 0.00 41 1008.0
20260505020004 18 338 1.6 1.6 0.00 0.00 0.00 41 1007.7
20260505015004 18 45 0.0 0.0 0.00 0.00 0.00 40 1007.7
20260505014004 19 90 0.0 0.0 0.00 0.00 0.00 40 1007.7
20260505013004 20 90 0.0 0.0 0.00 0.00 0.00 36 1007.7
20260505012004 20 90 0.0 0.0 0.00 0.00 0.00 36 1007.7
20260505011005 20 90 0.0 0.0 0.00 0.00 0.00 36 1007.9
20260505010005 21 90 0.0 0.0 0.00 0.00 0.00 35 1007.7
20260505005005 21 68 0.0 0.0 0.00 0.00 0.00 35 1007.7
20260505004004 22 68 0.0 0.0 0.00 0.00 0.00 34 1008.1
20260505003004 22 68 0.0 0.0 0.00 0.00 0.00 32 1007.7
20260505002005 23 22 0.0 0.0 0.00 0.00 0.00 31 1007.7
20260505001003 23 0 0.0 4.8 0.00 0.00 0.00 29 1007.7
20260505000005 24 22 0.0 0.0 0.00 0.00 0.00 29 1007.7
20260504235005 25 22 0.0 3.2 0.00 0.00 0.00 29 1008.1
20260504234004 26 232 0.0 0.0 0.00 0.00 0.00 28 1008.1
20260504232004 27 135 0.0 0.0 0.00 0.00 0.00 25 1008.1
20260504231005 28 112 0.0 0.0 0.00 0.00 0.00 25 1008.1
20260504230004 28 135 1.6 1.6 0.00 0.00 0.00 25 1008.1
20260504225004 28 68 0.0 0.0 0.00 0.00 0.00 25 1008.1
20260504224007 27 135 0.0 0.0 0.00 0.00 0.00 25 1008.1
20260504223005 27 135 0.0 0.0 0.00 0.00 0.00 26 1008.1
20260504222005 27 0 3.2 4.8 0.00 0.00 0.00 26 1008.1
20260504221006 27 22 1.6 3.2 0.00 0.00 0.00 25 1008.1
20260504220005 27 135 0.0 0.0 0.00 0.00 0.00 26 1008.4
20260504215004 27 135 0.0 4.8 0.00 0.00 0.00 26 1008.2
20260504214004 27 135 3.2 4.8 0.00 0.00 0.00 26 1008.4
20260504213004 27 96 0.0 0.0 0.00 0.00 0.00 26 1008.4
20260504212004 27 135 0.0 0.0 0.00 0.00 0.00 26 1008.6
20260504205004 26 68 0.0 0.0 0.00 0.00 0.00 27 1008.8
20260504203004 26 135 1.6 4.8 0.00 0.00 0.00 27 1008.8
20260504201005 26 158 0.0 3.2 0.00 0.00 0.00 27 1008.8
20260504200005 26 135 4.8 4.8 0.00 0.00 0.00 27 1008.8
20260504195004 26 135 0.0 0.0 0.00 0.00 0.00 27 1008.4
20260504194004 26 135 0.0 0.0 0.00 0.00 0.00 28 1008.8
20260504193006 26 112 0.0 3.2 0.00 0.00 0.00 28 1008.8
20260504192005 26 90 0.0 3.2 0.00 0.00 0.00 28 1008.8
20260504191004 25 135 0.0 0.0 0.00 0.00 0.00 29 1008.9
20260504185004 25 45 0.0 0.0 0.00 0.00 0.00 31 1008.8
20260504184005 23 0 0.0 0.0 0.00 0.00 0.00 29 1008.8
20260504183005 23 135 0.0 0.0 0.00 0.00 0.00 32 1009.1
20260504181004 23 135 1.6 3.2 0.00 0.00 0.00 32 1009.1
20260504180004 22 135 0.0 0.0 0.00 0.00 0.00 33 1009.1
20260504175004 22 135 0.0 1.6 0.00 0.00 0.00 34 1009.1
20260504174004 21 158 3.2 3.2 0.00 0.00 0.00 35 1009.1
20260504173004 21 135 0.0 0.0 0.00 0.00 0.00 36 1009.1
20260504171004 20 135 0.0 1.6 0.00 0.00 0.00 38 1009.1
20260504151005 13 0 0.0 4.8 0.00 0.00 0.00 50 1009.4